GLOBALSTAR M078

Last updated on Sat Sep 05 2026 00:03:16 GMT+0000 (Coordinated Universal Time)

1 39076U 13005E 26247.46528279 -.00000114 00000+0 -56243-4 0 9999 2 39076 51.9882 42.1857 0001644 86.1962 273.9093 12.62260231626028
UTC large
Height (km)
Speed (km/s)
/
Latitude / Longitude
Inclination (degrees)
Orbital Period (minutes)
Azimuth
Elevation
Range (km)
Doppler Factor

Next 0 passes for location: London (51.5072 / 0.1276)

No passes found over London.
GLOBALSTAR M078